Weather History for Crestview, FL

Change the Weather History Date:

Friday, October 4, 2013

  Actual Average Record
Temperature  
Mean Temperature 78 °F -  
Max Temperature 90 °F - - ()
Min Temperature 68 °F - - ()
Cooling Degree Days 14    
Growing Degree Days 28 (Base 50)    
Moisture  
Dew Point 72 °F    
Average Humidity 83    
Maximum Humidity 100    
Minimum Humidity 54    
Precipitation  
Precipitation 0.00 in - - ()
Sea Level Pressure  
Sea Level Pressure 30.06 in    
Wind  
Wind Speed 4 mph (ESE)    
Max Wind Speed 13 mph    
Max Gust Speed -    
Visibility 10 miles    
Events Rain , Thunderstorm    
T = Trace of Precipitation, MM = Missing Value Source: NWS Daily Summary

Daily Weather History Graph

Daily Weather History Graph

Search for Another Location

Airport:

Trip Planner

Search our weather history database for the weather conditions in past years. The results will help you decide how hot, cold, wet, or windy it might be!

Date:

Astronomy

Oct. 04, 2013 Rise Set
Actual Time 6:41 AM CDT 6:27 PM CDT
Civil Twilight 6:17 AM CDT 6:51 PM CDT
Nautical Twilight 5:49 AM CDT 7:19 PM CDT
Astronomical Twilight 5:21 AM CDT 7:47 PM CDT
Moon 6:15 AM CDT (10/4) 6:12 PM CDT (10/4)
Length of Visible Light 12h 33m
Length of Day
11h 45m
Waning Crescent, 0% of the Moon is Illuminated
Oct 4
Waning Crescent
Oct 4
New
Oct 11
First Quarter
Oct 18
Full
Oct 26
Last Quarter

Hourly Weather History & Observations

Time (CDT) Temp. Heat Index Dew Point Humidity Pressure Visibility Wind Dir Wind Speed Gust Speed Precip Events Conditions
12:58 AM 71.4 °F - 71.1 °F 99% 30.04 in 10.0 mi NE 1.2 mph - N/A   Clear
1:58 AM 70.0 °F - 69.6 °F 99% 30.04 in 7.0 mi NE 2.3 mph - N/A   Clear
2:58 AM 69.4 °F - 69.3 °F 99% 30.02 in 10.0 mi ENE 4.6 mph - N/A   Clear
3:58 AM 69.6 °F - 69.3 °F 99% 30.03 in 10.0 mi ENE 2.3 mph - N/A   Clear
4:58 AM 68.7 °F - 68.4 °F 99% 30.04 in 8.0 mi ENE 2.3 mph - N/A   Clear
5:58 AM 68.5 °F - 68.2 °F 99% 30.06 in 10.0 mi ENE 3.5 mph - N/A   Clear
6:58 AM 68.9 °F - 68.5 °F 99% 30.08 in 10.0 mi ENE 2.3 mph - N/A   Clear
7:58 AM 71.2 °F - 69.6 °F 95% 30.09 in 10.0 mi ENE 5.8 mph - N/A   Clear
8:58 AM 77.7 °F - 69.8 °F 76% 30.09 in 10.0 mi Variable 5.8 mph - N/A   Clear
9:58 AM 82.4 °F 86.7 °F 71.1 °F 68% 30.11 in 10.0 mi East 8.1 mph - N/A   Clear
10:58 AM 85.5 °F 90.4 °F 70.7 °F 61% 30.09 in 10.0 mi Variable 5.8 mph - N/A   Clear
11:58 AM 88.0 °F 94.2 °F 71.4 °F 58% 30.09 in 10.0 mi SE 4.6 mph - N/A   Partly Cloudy
12:58 PM 88.7 °F 93.9 °F 70.3 °F 54% 30.06 in 10.0 mi SE 4.6 mph - N/A   Clear
1:58 PM 88.7 °F 95.7 °F 72.1 °F 58% 30.04 in 10.0 mi South 8.1 mph - N/A   Clear
2:58 PM 89.4 °F 98.3 °F 73.8 °F 60% 30.02 in 10.0 mi South 12.7 mph - N/A   Clear
3:58 PM 86.4 °F 93.8 °F 73.4 °F 65% 30.02 in 10.0 mi South 12.7 mph - N/A   Clear
4:58 PM 86.5 °F 94.6 °F 73.9 °F 66% 30.03 in 10.0 mi South 10.4 mph - N/A   Clear
5:51 PM 84.2 °F 90.9 °F 73.4 °F 70% 30.03 in 10.0 mi South 10.4 mph - N/A Thunderstorm Thunderstorm
5:58 PM 84.0 °F 91.5 °F 74.7 °F 73% 30.04 in 10.0 mi South 9.2 mph - N/A Thunderstorm Thunderstorm
6:06 PM 82.4 °F 89.5 °F 75.2 °F 79% 30.04 in 10.0 mi SSE 6.9 mph - N/A Thunderstorm Clear
6:37 PM 80.6 °F 86.2 °F 75.2 °F 84% 30.05 in 10.0 mi Variable 3.5 mph - N/A Rain Light Rain
6:46 PM 80.6 °F 86.2 °F 75.2 °F 84% 30.05 in 10.0 mi SW 3.5 mph - N/A   Partly Cloudy
6:58 PM 80.8 °F 86.5 °F 75.2 °F 83% 30.06 in 10.0 mi Calm Calm - 0.00 in   Partly Cloudy
7:58 PM 77.7 °F - 76.3 °F 95% 30.06 in 10.0 mi SE 2.3 mph - N/A   Partly Cloudy
8:58 PM 76.3 °F - 75.9 °F 99% 30.07 in 10.0 mi ESE 3.5 mph - N/A   Partly Cloudy
9:58 PM 74.8 °F - 74.5 °F 99% 30.09 in 10.0 mi Calm Calm - N/A   Clear
10:58 PM 75.7 °F - 75.7 °F 100% 30.09 in 10.0 mi ESE 3.5 mph - N/A   Clear
11:58 PM 76.3 °F - 75.9 °F 99% 30.06 in 10.0 mi East 3.5 mph - N/A   Clear